Location: Unspecified
(50.7693°N, 0.0000°E)
Time: 02:23:58
(UTC+00:00)

Vanguard 1 Rocket - Pass Details

Date: 23 June 2019
Orbit: 651 x 4225 km, 34.3° (Epoch: 16 July)

Event Time Altitude Azimuth Distance (km) Brightness Sun altitude
Rises 21:15:30 0° 263° (W) 5,596 11.9 -7.2°
Reaches altitude 10° 21:21:19 10° 247° (WSW) 3,849 10.8 -7.8°
Maximum altitude 21:26:36 17° 212° (SSW) 2,696 9.6 -8.3°
Drops below altitude 10° 21:30:33 10° 174° (S) 2,710 9.3 -8.6°
Enters shadow 21:31:13 - 168° (SSE) 2,808 9.3 -8.7°
